Погода в Аспиндзе

Погода в Аспиндзе : погода сейчас, прогноз погоды и архив. Всё, что Вы хотите узнать о погоде в Аспиндзе!

Поиск расширенной информации на нашем сайте:

Полезная информация: как избавиться от целлюлита
ссангйонг кайрон ремонт

Другие новости

Новости СМИ2

Главная страница сайта

Новости сайта

02.10.2013

Напоминаем, что на нашем новом сайте вы можете получить высокодетализированные прогнозы погоды по пунктам России, СНГ и мира (включающие важные для авиации метеовеличины, такие как направление и скорость ветра, видимость, явления погоды, количество и форма облачности, нижняя и верхняя граница облачности), а также ознакомиться с разнообразными материалами по авиационной метеорологии и подборкой полезных ссылок на эту тему.

Сайт Метеоцентр.Азия посвящён разработке технологий оптимизации авиаметеорологического обслуживания, включая проектирование и перспективное создание нескольких автоматизированных авиаметеорологических систем:
- система выпуска высокодетальных прогностических карт явлений погоды для нижнего воздушного пространства по России и ближнему зарубежью;
- система верификации прогнозов TAF (выпускаемых синоптиками официальных АМСГ РФ и ближнего зарубежья) и AUTOTAF (выпускаемых сайтом Метеоцентр.Азия) - выявление ошибок, онлайн-сопоставление с фактической погодой METAR, автоматическое внесение коррективов в прогнозы при резком отклонении фактической погоды от прогноза, подсчёт оправдываемости прогнозов по элементам и в целом;
- система обработки, анализа и отображения авиаметеорологической информации для применения провайдерами метеорологической информации.

Рекомендуем: Например, при воспроизведении рекламные экраны в спб состоянии "покоя"

Погода в Аспиндзе - сегодня

Время (UTC), дата Ветер
(°,м/с) 
Видим.   Явления Облачность Т
(°С)
Тd
(°С)
f(%) Тe
(°С)
Pmin
(гПа)
dP
(гПа)
Po
(мм)
O2
(г/м3)
Тmin Tmax R s Состояние
почвы
18 23.04.17 230 (ЮЗ) 4000 м  слаб. ливневой дождь  10/10 600 м кучево-дожд. 
[Cb cap]
+6.2 +5.3 94 +4  1011.4  4.1      +23       
00 24.04.17 тихо ()   4000 м  слаб. ливневой дождь{гроза}  10/10 600 м кучево-дожд. 
[Cb cap]
+3.5 +3.3 99 +4  1018.1  1.8  677  268           
03 24.04.17 тихо ()   20000 м    10/10 600 м кучево-дожд. 
[Cb cap]
+3 +2.5 97 +3  1019.6  1.1  677  269         
06 24.04.17 тихо ()   20000 м    8/8 1000 м 
[Sc]
+6.8 +2.4 73 +7  1018.8  0.8  678  266  +2.9       
09 24.04.17 360 (С) 20000 м    10/10 1000 м кучево-дожд. 
[Cb cap]
+9.1 +1.7 60 +10  1018  0.2  678  264           
12 24.04.17 270 (З) 20000 м    9/9 1000 м кучево-дожд. 
[Cb cap]
+10.5 -0.2 47 +9  1017.7  0.2  678  263           
15 24.04.17 270 (З) 20000 м    8/8 1000 м кучево-дожд. 
[Cb cap]
+9.2 -0.7 50 +8  1019.1  0.8  679  265    +12.4       
18 24.04.17 тихо ()   4000 м    9/9 1000 м 
[Sc]
+5.4 -2.7 56 +5  1023  1.9  680  269    +12.4       
21 24.04.17 тихо ()   4000 м    9/9 1000 м 
[Sc]
+3.2 -1.6 71 +3  1023.8  -0.2  680  271           
00 25.04.17 тихо ()   4000 м    10/10 1000 м 
[Sc]
+2.2   1023.7  680             
03 25.04.17 тихо ()   10 км  {ливн. осадки}  10/10 600 м кучево-дожд. 
[Cb cap]
+2.2 +1.7 96 +2  1027.4  2.9  682  272      0.0     
06 25.04.17 180 (Ю) 20000 м  {ливн. осадки}  9/9 600 м кучево-дожд. 
[Cb cap]
+6 +0.3 67 +5  1027.8  1.8  684  269  +2    0.0     
09 25.04.17 тихо ()   20000 м    8/8 1000 м 
[Sc]
+7.2 +0.9 64 +7  1027.7  0.4  684  268           
12 25.04.17 050 (СВ) 20000 м    4/4 1000 м 
[Sc]
+8.3 +0.6 58 +6  1027.6  0.3  684  267           
15 25.04.17 050 (СВ) 20000 м    3/3 1000 м 
[Sc]
+7 -0.9 57 +6  1028.4  0.2  684  269    +8.4       
18 25.04.17 тихо ()   4000 м    ясно 
+1.6 -2.5 74 +2  1031.6  0.7  685  274    +8.4       
21 25.04.17 тихо ()   4000 м    ясно 
-3.3 -4.3 93 -3  1034.4  0.4  685  280           
00 26.04.17 тихо ()   4000 м    ясно 
-4.9 -5.5 96 -5  1035.6  0.4  686  282           
03 26.04.17 тихо ()   20000 м    ясно 
-5 -6 93 -5  1036.5  0.8  686  282           
06 26.04.17 тихо ()   20000 м    ясно 
+4 -3.6 58 +4  1032.9  0.5  686  273  -7.1         
09 26.04.17 тихо ()   20000 м    ясно 
+10.3 -1.9 42 +10  1027.8  -2  685  266           
12 26.04.17 050 (СВ) 20000 м    ясно 
+17 +0.9 34 +17  1023.4  -1.5  684  259           
15 26.04.17 050 (СВ) 20000 м    ясно 
+14.1 -0.2 37 +13  1022.8  -1.6  683  261    +17.5       
18 26.04.17 050 (СВ) 4000 м    ясно 
+8.6 -0.7 52 +6  1027.1  1.8  684  267    +17.5       
21 26.04.17 тихо ()   4000 м    ясно 
+5.1 -0.8 66 +5  1029.7  0.9  685  271           
Время (UTC), дата Ветер
(°,м/с) 
Видим.   Явления Облачность Т
(°С)
Тd
(°С)
f(%) Тe
(°С)
Pmin
(гПа)
dP
(гПа)
Po
(мм)
O2
(г/м3)
Тmin Tmax R s Состояние
почвы

Для получения пояснительной информации подведите курсор к названию столбца.

ПОГОДА в Аспиндзе - архив

Всё, что Вы хотите узнать о погоде в Аспиндзе - удобно и подробно!

Выберите нужную дату (начиная с 1 января 2015* года) и нажмите кнопку "Найти".
Будут отображены архивные сводки погоды по пункту Аспиндза, начиная с указанной даты.


Отображать данные в формате CSV (для использования в таблицах Excel)


Внимание! Наш архив погоды предназначен исключительно для личного некоммерческого использования в познавательных целях. Если Вам необходимы официальные справки о состоянии погоды (для производственных, юридических, коммерческих и т.п. целей), обращайтесь в органы Росгидромета.

*Примечание: данная дата относится к архиву по метеостанциям СССР (Россия, СНГ, Балтия).
Архив по метеостанциям Зарубежной Европы и Азии (кроме Китая) хранится 10 дней, по другим регионам земного шара (Китай, Африка, Америка, Австралия, Океания) - 1 день.

Аспиндза - район местоположения метеостанции


Название, широта, долгота, высота метеостанции:
Аспиндза 41.6°ш. 43.2°д. 983 м над ур. моря [Грузия]

Дополнительная информация

В oтличие oт бoльшинства пoгoдных сайтoв мы публикуем пoдрoбную метеoинфoрмацию в детальнoм прoфессиoнальнoм фoрмате.

Характеристики температуры и влажнoсти вoздуха измеряются на высoте 2 м в тени вдали oт зданий и деревьев.
Скoрoсть ветра измеряется на высoте 10 м (на урoвне рoста челoвека скoрoсть ветра ниже в 1.5-2 раза). Если метеoстанция нахoдится в гoрoде или в лесу, тo скoрoсть ветра занижена на 2-4 м/с пo сравнению с oткрытым местoм. Скoрoсть ветра над акватoриями крупных рек и oзёр, а также на вершинах хoлмoв на 2-5 м/с выше, чем в oбычных услoвиях.
Атмoсфернoе давление в разных тoчках местнoсти мoжет значительнo oтличаться oт давления на метеoстанции, в зависимoсти oт услoвий рельефа (при пoдъёме на 10 м давление пoнижается примернo на 1 мм рт.ст.).